Location: El Carrer d�Abaix
(41.5797°N, 2.1791°E)
Time: 09:45:31
(UTC+00:00)

Cosmos 2297 Rocket - Pass Details

Date: 06 June 2020
Orbit: 840 x 842 km, 71.0° (Epoch: 11 July)

Event Time Altitude Azimuth Distance (km) Brightness Sun altitude
Rises 23:24:10 0° 338° (NNW) 3,404 6.6 -25.4°
Reaches altitude 10° 23:26:38 10° 340° (NNW) 2,466 5.6 -25.4°
Maximum altitude 23:32:17 70° 64° (ENE) 895 2.3 -25.5°
Enters shadow 23:33:15 58° 118° (ESE) 978 2.3 -25.5°
